Lapeer, MI

7:57 AM EDT on March 26, 2017 (GMT -0400)
Lapeer

Weather History for KD95 - October, 2013

Change the Weather History Date:

Thursday, October 10, 2013

  Actual Average (KFNT) Record (KFNT)
Temperature  
Mean Temperature 53 °F -  
Max Temperature 71 °F 60 °F 85 °F (1949)
Min Temperature 35 °F 40 °F 26 °F (1993)
Degree Days  
Heating Degree Days 12    
Growing Degree Days 3 (Base 50)    
Moisture  
Dew Point 41 °F    
Average Humidity 77    
Maximum Humidity 100    
Minimum Humidity 28    
Precipitation  
Precipitation 0.00 in - - ()
Sea Level Pressure  
Sea Level Pressure 30.20 in    
Wind  
Wind Speed 1 mph (SSE)    
Max Wind Speed 9 mph    
Max Gust Speed -    
Visibility 7 miles    
Events Fog    
Averages and records for this station are not official NWS values.
T = Trace of Precipitation, MM = Missing Value Source: NWS Daily Summary

Daily Weather History Graph

Daily Weather History Graph

Search for Another Location

Airport or City:

Trip Planner

Search our weather history database for the weather conditions in past years. The results will help you decide how hot, cold, wet, or windy it might be!

Date:

Astronomy

Oct. 10, 2013 Rise Set
Actual Time 7:41 AM EDT 6:58 PM EDT
Civil Twilight 7:12 AM EDT 7:26 PM EDT
Nautical Twilight 6:39 AM EDT 7:59 PM EDT
Astronomical Twilight 6:06 AM EDT 8:32 PM EDT
Moon 1:37 PM EDT (10/10) 11:29 PM EDT (10/10)
Length of Visible Light 12h 14m
Length of Day
11h 17m
Waxing Crescent, 35% of the Moon is Illuminated
Oct 10
Waxing Crescent
Oct 11
First Quarter
Oct 18
Full
Oct 26
Last Quarter
Nov 3
New

Hourly Weather History & Observations

Time (EDT) Temp. Windchill Dew Point Humidity Pressure Visibility Wind Dir Wind Speed Gust Speed Precip Events Conditions
12:13 AM 39.7 °F - 39.4 °F 99% 30.25 in 2.5 mi Calm Calm - N/A   Clear
12:34 AM 40.6 °F - 40.6 °F 100% 30.24 in 1.8 mi Calm Calm - N/A   Mist
12:53 AM 38.8 °F - 38.5 °F 99% 30.24 in 0.5 mi Calm Calm - N/A Fog Fog
1:13 AM 39.7 °F - 39.7 °F 100% 30.24 in 2.5 mi Calm Calm - N/A   Clear
1:34 AM 37.9 °F - 37.9 °F 100% 30.24 in 2.0 mi Calm Calm - N/A   Clear
1:53 AM 38.7 °F - 38.7 °F 100% 30.23 in 3.0 mi Calm Calm - N/A   Clear
2:13 AM 38.7 °F - 38.7 °F 100% 30.23 in 10.0 mi Calm Calm - N/A   Clear
2:34 AM 38.5 °F - 38.5 °F 100% 30.23 in 10.0 mi Calm Calm - N/A   Clear
2:53 AM 36.9 °F - 36.9 °F 100% 30.23 in 10.0 mi Calm Calm - N/A   Clear
3:13 AM 37.9 °F - 37.9 °F 100% 30.23 in 7.0 mi Calm Calm - N/A   Clear
3:33 AM 37.4 °F - 37.4 °F 100% 30.23 in 7.0 mi Calm Calm - N/A   Clear
3:53 AM 37.9 °F - 37.9 °F 100% 30.23 in 10.0 mi Calm Calm - N/A   Clear
4:14 AM 37.8 °F - 37.8 °F 100% 30.23 in 7.0 mi Calm Calm - N/A   Clear
4:33 AM 37.9 °F - 37.9 °F 100% 30.22 in 7.0 mi Calm Calm - N/A   Clear
4:53 AM 36.3 °F - 36.3 °F 100% 30.22 in 5.0 mi Calm Calm - N/A   Clear
5:14 AM 37.6 °F - 37.6 °F 100% 30.23 in 7.0 mi Calm Calm - N/A   Clear
5:33 AM 36.5 °F - 36.5 °F 100% 30.23 in 5.0 mi Calm Calm - N/A   Clear
5:53 AM 37.6 °F - 37.6 °F 100% 30.23 in 7.0 mi Calm Calm - N/A   Clear
6:14 AM 36.7 °F - 36.7 °F 100% 30.23 in 1.2 mi Calm Calm - N/A   Mist
6:33 AM 36.5 °F - 36.5 °F 100% 30.23 in 5.0 mi Calm Calm - N/A   Clear
6:53 AM 35.6 °F - 35.6 °F 100% 30.23 in 10.0 mi Calm Calm - N/A   Clear
7:14 AM 35.2 °F - 35.2 °F 100% 30.23 in 10.0 mi Calm Calm - N/A   Clear
7:33 AM 36.1 °F - 36.1 °F 100% 30.23 in 7.0 mi Calm Calm - N/A   Clear
7:53 AM 37.9 °F - 37.9 °F 100% 30.23 in 0.8 mi Calm Calm - N/A   Overcast
8:13 AM 37.6 °F - 37.6 °F 100% 30.23 in 0.5 mi Calm Calm - N/A Fog Fog
8:33 AM 41.0 °F - 41.0 °F 100% 30.24 in 0.2 mi Calm Calm - N/A Fog Fog
8:54 AM 44.4 °F - 44.4 °F 100% 30.24 in 0.2 mi Calm Calm - N/A Fog Fog
9:13 AM 45.9 °F - 45.9 °F 100% 30.24 in 0.2 mi Calm Calm - N/A Fog Fog
9:33 AM 47.5 °F - 47.5 °F 100% 30.24 in 0.2 mi Calm Calm - N/A Fog Fog
9:54 AM 49.1 °F - 48.7 °F 99% 30.25 in 0.2 mi Calm Calm - N/A Fog Fog
10:13 AM 50.9 °F - 50.7 °F 99% 30.24 in 0.2 mi Calm Calm - N/A Fog Fog
10:33 AM 54.5 °F - 54.3 °F 99% 30.24 in 2.0 mi Calm Calm - N/A   Mostly Cloudy
10:54 AM 57.9 °F - 55.8 °F 92% 30.24 in 10.0 mi Calm Calm - N/A   Clear
11:13 AM 61.7 °F - 54.1 °F 76% 30.23 in 10.0 mi SE 3.5 mph - N/A   Clear
11:33 AM 63.3 °F - 50.4 °F 63% 30.23 in 10.0 mi SE 3.5 mph - N/A   Clear
11:54 AM 65.8 °F - 46.6 °F 50% 30.23 in 10.0 mi SSE 3.5 mph - N/A   Clear
12:13 PM 67.1 °F - 41.4 °F 39% 30.23 in 10.0 mi South 4.6 mph - N/A   Clear
12:33 PM 67.3 °F - 43.5 °F 42% 30.23 in 10.0 mi SE 3.5 mph - N/A   Clear
12:54 PM 67.5 °F - 45.0 °F 44% 30.23 in 10.0 mi SSE 8.1 mph - N/A   Clear
1:13 PM 68.4 °F - 44.6 °F 42% 30.22 in 10.0 mi ESE 4.6 mph - N/A   Clear
1:33 PM 68.5 °F - 43.5 °F 40% 30.22 in 10.0 mi Calm Calm - N/A   Clear
1:54 PM 68.9 °F - 43.3 °F 40% 30.21 in 10.0 mi South 3.5 mph - N/A   Clear
2:13 PM 69.3 °F - 43.3 °F 39% 30.20 in 10.0 mi SE 4.6 mph - N/A   Clear
2:33 PM 70.0 °F - 41.9 °F 36% 30.19 in 10.0 mi South 5.8 mph - N/A   Clear
2:54 PM 70.0 °F - 41.9 °F 36% 30.18 in 10.0 mi SSE 9.2 mph - N/A   Clear
3:13 PM 70.2 °F - 40.6 °F 34% 30.18 in 10.0 mi SSE 4.6 mph - N/A   Clear
3:33 PM 71.1 °F - 41.2 °F 34% 30.18 in 10.0 mi South 6.9 mph - N/A   Clear
3:54 PM 70.7 °F - 38.8 °F 31% 30.18 in 10.0 mi SW 5.8 mph - N/A   Clear
4:13 PM 70.7 °F - 37.6 °F 30% 30.17 in 10.0 mi South 3.5 mph - N/A   Clear
4:33 PM 70.7 °F - 37.2 °F 29% 30.17 in 10.0 mi Calm Calm - N/A   Clear
4:54 PM 70.9 °F - 36.5 °F 28% 30.17 in 7.0 mi Calm Calm - N/A   Clear
5:13 PM 70.0 °F - 35.4 °F 28% 30.16 in 10.0 mi SE 3.5 mph - N/A   Clear
5:33 PM 69.3 °F - 37.0 °F 31% 30.16 in 10.0 mi SSE 3.5 mph - N/A   Clear
5:54 PM 68.2 °F - 37.4 °F 32% 30.16 in 10.0 mi SSE 4.6 mph - N/A   Clear
6:13 PM 67.1 °F - 39.6 °F 36% 30.16 in 10.0 mi Calm Calm - N/A   Clear
6:33 PM 65.1 °F - 40.5 °F 40% 30.15 in 10.0 mi SSE 3.5 mph - N/A   Clear
6:53 PM 61.5 °F - 43.0 °F 51% 30.15 in 10.0 mi Calm Calm - N/A   Clear
7:13 PM 59.7 °F - 42.3 °F 52% 30.15 in 10.0 mi Calm Calm - N/A   Clear
7:33 PM 56.3 °F - 43.3 °F 62% 30.16 in 10.0 mi Calm Calm - N/A   Clear
7:53 PM 49.1 °F - 44.4 °F 84% 30.15 in 10.0 mi Calm Calm - N/A   Clear
8:13 PM 48.0 °F - 43.7 °F 85% 30.15 in 10.0 mi Calm Calm - N/A   Clear
8:33 PM 46.0 °F - 42.8 °F 88% 30.15 in 10.0 mi Calm Calm - N/A   Clear
8:53 PM 48.0 °F - 43.9 °F 86% 30.15 in 10.0 mi Calm Calm - N/A   Clear
9:13 PM 44.4 °F - 42.1 °F 91% 30.15 in 10.0 mi Calm Calm - N/A   Clear
9:33 PM 45.3 °F 44.0 °F 42.4 °F 90% 30.15 in 10.0 mi ESE 3.5 mph - N/A   Clear
9:53 PM 45.1 °F - 41.9 °F 88% 30.15 in 7.0 mi Calm Calm - N/A   Clear
10:13 PM 45.1 °F 43.7 °F 42.3 °F 90% 30.15 in 10.0 mi SE 3.5 mph - N/A   Clear
10:34 PM 45.1 °F - 41.7 °F 88% 30.15 in 10.0 mi Calm Calm - N/A   Clear
10:53 PM 43.7 °F - 41.7 °F 93% 30.15 in 10.0 mi Calm Calm - N/A   Clear
11:13 PM 41.5 °F - 39.7 °F 93% 30.15 in 10.0 mi Calm Calm - N/A   Clear
11:34 PM 41.2 °F - 39.6 °F 94% 30.16 in 10.0 mi Calm Calm - N/A   Clear
11:53 PM 40.5 °F - 39.7 °F 97% 30.16 in 10.0 mi Calm Calm - N/A   Clear